TimeAST,TemperatureF,Dew PointF,Humidity,Sea Level PressureIn,VisibilityMPH,Wind Direction,Wind SpeedMPH,Gust SpeedMPH,PrecipitationIn,Events,Conditions,WindDirDegrees,DateUTC
2:00 AM,73.4,73.4,100,29.89,6.2,Calm,Calm,-,N/A,,Partly Cloudy,0,2012-10-30 06:00:00
3:00 AM,73.4,71.6,94,29.86,6.2,Calm,Calm,-,N/A,,Scattered Clouds,0,2012-10-30 07:00:00
4:00 AM,73.4,71.6,94,29.86,6.2,Calm,Calm,-,N/A,,Partly Cloudy,0,2012-10-30 08:00:00
5:00 AM,73.4,71.6,94,29.86,6.2,Calm,Calm,-,N/A,,Partly Cloudy,0,2012-10-30 09:00:00
6:00 AM,73.4,71.6,94,29.89,6.2,Calm,Calm,-,N/A,,Partly Cloudy,0,2012-10-30 10:00:00
7:00 AM,73.4,73.4,100,29.92,6.2,Calm,Calm,-,N/A,,Scattered Clouds,0,2012-10-30 11:00:00
9:00 AM,84.2,77.0,79,29.95,6.2,Calm,Calm,-,N/A,,Partly Cloudy,0,2012-10-30 13:00:00
10:00 AM,86.0,78.8,79,29.98,6.2,South,5.8,-,N/A,,Partly Cloudy,180,2012-10-30 14:00:00
11:00 AM,-9999,-9999,N/A,29.98,6.2,South,9.2,-,N/A,,Partly Cloudy,190,2012-10-30 15:00:00
12:00 PM,86.0,78.8,79,29.95,6.2,South,11.5,-,N/A,,Scattered Clouds,190,2012-10-30 16:00:00
1:00 PM,86.0,78.8,79,29.92,6.2,South,11.5,-,N/A,,Scattered Clouds,190,2012-10-30 17:00:00
2:00 PM,87.8,78.8,75,29.92,6.2,SSW,11.5,-,N/A,,Scattered Clouds,210,2012-10-30 18:00:00
3:00 PM,84.2,78.8,84,29.89,6.2,SSW,9.2,-,N/A,,Mostly Cloudy,210,2012-10-30 19:00:00
4:00 PM,84.2,77.0,79,29.89,6.2,SW,11.5,-,N/A,,Mostly Cloudy,220,2012-10-30 20:00:00
5:00 PM,83,77,77,29.92,10,SW,8.9,,,,Partly Cloudy,220,2012-10-30 21:00:00
5:00 PM,84.2,77.0,79,29.92,6.2,SW,9.2,-,N/A,,Mostly Cloudy,220,2012-10-30 21:00:00
6:00 PM,82.4,77.0,84,29.92,6.2,SW,5.8,-,N/A,,Mostly Cloudy,230,2012-10-30 22:00:00
7:00 PM,80.6,77.0,89,29.92,6.2,WSW,4.6,-,N/A,Thunderstorm,Light Thunderstorm,240,2012-10-30 23:00:00
8:00 PM,80.6,77.0,89,29.95,6.2,Calm,Calm,-,N/A,Thunderstorm,Light Thunderstorm,0,2012-10-31 00:00:00
9:00 PM,78.8,77.0,94,29.95,6.2,Calm,Calm,-,N/A,Thunderstorm,Thunderstorm,0,2012-10-31 01:00:00
10:00 PM,78.8,75.2,89,29.95,6.2,Calm,Calm,-,N/A,Thunderstorm,Thunderstorm,0,2012-10-31 02:00:00
11:00 PM,77.0,71.6,83,29.98,6.2,NNW,4.6,-,N/A,,Mostly Cloudy,330,2012-10-31 03:00:00